Blackwell, OK

1:20 PM CDT on April 26, 2017 (GMT -0500)
Blackwell

Weather History for KBKN - September, 2012

Change the Weather History Date:

Monday, September 3, 2012

  Actual Average (KPNC) Record (KPNC)
Temperature  
Mean Temperature 89 °F -  
Max Temperature 107 °F 87 °F 108 °F (2012)
Min Temperature 71 °F 63 °F 45 °F (1952)
Cooling Degree Days 24    
Growing Degree Days 39 (Base 50)    
Moisture  
Dew Point 61 °F    
Average Humidity 41    
Maximum Humidity 73    
Minimum Humidity 20    
Precipitation  
Precipitation 0.00 in - - ()
Sea Level Pressure  
Sea Level Pressure 29.85 in    
Wind  
Wind Speed 6 mph (South)    
Max Wind Speed 16 mph    
Max Gust Speed 23 mph    
Visibility 10 miles    
Events      
Averages and records for this station are not official NWS values.
T = Trace of Precipitation, MM = Missing Value Source: NWS Daily Summary

Daily Weather History Graph

Daily Weather History Graph

Search for Another Location

Airport or City:

Trip Planner

Search our weather history database for the weather conditions in past years. The results will help you decide how hot, cold, wet, or windy it might be!

Date:

Astronomy

Sep. 03, 2012 Rise Set
Actual Time 7:02 AM CDT 7:53 PM CDT
Civil Twilight 6:36 AM CDT 8:20 PM CDT
Nautical Twilight 6:04 AM CDT 8:51 PM CDT
Astronomical Twilight 5:32 AM CDT 9:23 PM CDT
Moon 9:21 PM CDT (9/3) 10:05 AM CDT (9/3)
Length of Visible Light 13h 44m
Length of Day
12h 51m
Waning Gibbous, 90% of the Moon is Illuminated
Sep 3
Waning Gibbous
Sep 8
Last Quarter
Sep 15
New
Sep 22
First Quarter
Sep 29
Full

Hourly Weather History & Observations

Time (CDT) Temp. Heat Index Dew Point Humidity Pressure Visibility Wind Dir Wind Speed Gust Speed Precip Events Conditions
12:15 AM 82.4 °F 82.0 °F 57.2 °F 42% 29.85 in 10.0 mi SE 4.6 mph - N/A   Clear
12:35 AM 77.0 °F - 57.2 °F 50% 29.85 in 10.0 mi SE 3.5 mph - N/A   Clear
12:55 AM 77.0 °F - 57.2 °F 50% 29.85 in 10.0 mi ESE 3.5 mph - N/A   Clear
1:15 AM 77.0 °F - 57.2 °F 50% 29.85 in 10.0 mi ESE 3.5 mph - N/A   Clear
1:35 AM 77.0 °F - 57.2 °F 50% 29.86 in 10.0 mi ESE 3.5 mph - N/A   Clear
1:55 AM 77.0 °F - 57.2 °F 50% 29.85 in 10.0 mi ESE 4.6 mph - N/A   Clear
2:15 AM 77.0 °F - 57.2 °F 50% 29.85 in 10.0 mi SE 4.6 mph - N/A   Clear
2:35 AM 75.2 °F - 57.2 °F 53% 29.86 in 10.0 mi SE 3.5 mph - N/A   Clear
2:55 AM 75.2 °F - 57.2 °F 53% 29.86 in 10.0 mi SE 3.5 mph - N/A   Clear
3:15 AM 75.2 °F - 59.0 °F 57% 29.86 in 10.0 mi SSE 3.5 mph - N/A   Clear
3:35 AM 77.0 °F - 59.0 °F 54% 29.86 in 10.0 mi South 3.5 mph - N/A   Clear
3:55 AM 77.0 °F - 59.0 °F 54% 29.86 in 10.0 mi South 4.6 mph - N/A   Clear
4:15 AM 75.2 °F - 59.0 °F 57% 29.86 in 10.0 mi SSE 3.5 mph - N/A   Clear
4:35 AM 75.2 °F - 59.0 °F 57% 29.86 in 10.0 mi Calm Calm - N/A   Clear
4:55 AM 75.2 °F - 59.0 °F 57% 29.86 in 10.0 mi Calm Calm - N/A   Clear
5:15 AM 73.4 °F - 59.0 °F 61% 29.86 in 10.0 mi ENE 3.5 mph - N/A   Clear
5:35 AM 73.4 °F - 59.0 °F 61% 29.86 in 10.0 mi East 3.5 mph - N/A   Clear
5:55 AM 73.4 °F - 59.0 °F 61% 29.87 in 10.0 mi East 3.5 mph - N/A   Clear
6:15 AM 71.6 °F - 59.0 °F 64% 29.87 in 10.0 mi East 4.6 mph - N/A   Clear
6:35 AM 71.6 °F - 60.8 °F 69% 29.88 in 10.0 mi ESE 3.5 mph - N/A   Clear
6:55 AM 71.6 °F - 60.8 °F 69% 29.88 in 10.0 mi East 3.5 mph - N/A   Clear
7:15 AM 71.6 °F - 60.8 °F 69% 29.88 in 10.0 mi Calm Calm - N/A   Clear
7:35 AM 71.6 °F - 62.6 °F 73% 29.89 in 10.0 mi ESE 3.5 mph - N/A   Clear
7:55 AM 73.4 °F - 62.6 °F 69% 29.89 in 10.0 mi ESE 3.5 mph - N/A   Clear
8:15 AM 77.0 °F - 62.6 °F 61% 29.90 in 10.0 mi SE 3.5 mph - N/A   Clear
8:35 AM 80.6 °F 82.3 °F 64.4 °F 58% 29.90 in 10.0 mi SSE 4.6 mph - N/A   Clear
8:55 AM 82.4 °F 83.4 °F 62.6 °F 51% 29.89 in 10.0 mi South 5.8 mph - N/A   Clear
9:15 AM 84.2 °F 85.6 °F 64.4 °F 51% 29.89 in 10.0 mi SSW 6.9 mph - N/A   Clear
9:35 AM 86.0 °F 87.3 °F 64.4 °F 48% 29.89 in 10.0 mi South 6.9 mph - N/A   Clear
9:55 AM 87.8 °F 88.5 °F 62.6 °F 43% 29.89 in 10.0 mi SW 6.9 mph - N/A   Clear
10:15 AM 91.4 °F 92.1 °F 62.6 °F 38% 29.90 in 10.0 mi SW 8.1 mph - N/A   Clear
10:35 AM 93.2 °F 94.1 °F 62.6 °F 36% 29.90 in 10.0 mi SW 10.4 mph - N/A   Clear
10:55 AM 95.0 °F 96.0 °F 62.6 °F 34% 29.89 in 10.0 mi SW 8.1 mph - N/A   Clear
11:15 AM 96.8 °F 98.0 °F 62.6 °F 32% 29.89 in 10.0 mi WSW 9.2 mph - N/A   Clear
11:35 AM 98.6 °F 100.0 °F 62.6 °F 30% 29.89 in 10.0 mi WSW 8.1 mph - N/A   Clear
11:55 AM 100.4 °F 101.3 °F 60.8 °F 27% 29.88 in 10.0 mi WSW 8.1 mph - N/A   Clear
12:15 PM 102.2 °F 103.6 °F 60.8 °F 26% 29.88 in 10.0 mi WSW 5.8 mph 17.3 mph N/A   Clear
12:35 PM 102.2 °F 101.4 °F 57.2 °F 22% 29.87 in 10.0 mi SW 8.1 mph - N/A   Clear
12:55 PM 104.0 °F 103.4 °F 57.2 °F 21% 29.87 in 10.0 mi SSW 8.1 mph 23.0 mph N/A   Clear
1:15 PM 104.0 °F 102.9 °F 55.4 °F 20% 29.86 in 10.0 mi South 15.0 mph - N/A   Partly Cloudy
1:35 PM 105.8 °F 114.2 °F 69.8 °F 31% 29.85 in 10.0 mi WSW 16.1 mph 19.6 mph N/A   Partly Cloudy
1:55 PM 104.0 °F 102.9 °F 55.4 °F 20% 29.85 in 10.0 mi SSW 13.8 mph - N/A   Partly Cloudy
2:15 PM 105.8 °F 113.2 °F 68.0 °F 30% 29.85 in 10.0 mi SSW 15.0 mph 23.0 mph N/A   Partly Cloudy
2:35 PM 105.8 °F 113.2 °F 68.0 °F 30% 29.84 in 10.0 mi SSW 9.2 mph - N/A   Clear
2:55 PM 107.6 °F 121.3 °F 73.4 °F 34% 29.83 in 10.0 mi South 11.5 mph 18.4 mph N/A   Partly Cloudy
3:15 PM 107.6 °F 119.1 °F 71.6 °F 32% 29.82 in 10.0 mi SSW 15.0 mph 18.4 mph N/A   Mostly Cloudy
3:35 PM 107.6 °F 119.1 °F 71.6 °F 32% 29.82 in 10.0 mi South 11.5 mph - N/A   Partly Cloudy
3:55 PM 105.8 °F 116.1 °F 71.6 °F 33% 29.81 in 10.0 mi SW 13.8 mph 19.6 mph N/A   Partly Cloudy
4:15 PM 107.6 °F 119.1 °F 71.6 °F 32% 29.81 in 10.0 mi SW 9.2 mph 18.4 mph N/A   Partly Cloudy
4:35 PM 107.6 °F 119.1 °F 71.6 °F 32% 29.80 in 10.0 mi SSW 12.7 mph 21.9 mph N/A   Scattered Clouds
4:55 PM 105.8 °F 114.2 °F 69.8 °F 31% 29.80 in 10.0 mi South 13.8 mph 17.3 mph N/A   Clear
5:15 PM 105.8 °F 113.2 °F 68.0 °F 30% 29.80 in 10.0 mi SW 16.1 mph 19.6 mph N/A   Partly Cloudy
5:35 PM 105.8 °F 113.2 °F 68.0 °F 30% 29.79 in 10.0 mi South 13.8 mph - N/A   Clear
5:55 PM 104.0 °F 107.4 °F 64.4 °F 27% 29.79 in 10.0 mi South 13.8 mph - N/A   Clear
6:15 PM 104.0 °F 104.6 °F 59.0 °F 23% 29.79 in 10.0 mi South 11.5 mph 18.4 mph N/A   Clear
6:35 PM 104.0 °F 102.9 °F 55.4 °F 20% 29.79 in 10.0 mi South 11.5 mph - N/A   Clear
6:55 PM 102.2 °F 100.4 °F 53.6 °F 20% 29.79 in 10.0 mi South 12.7 mph - N/A   Clear
7:15 PM 102.2 °F 100.4 °F 53.6 °F 20% 29.79 in 10.0 mi South 12.7 mph 19.6 mph N/A   Clear
7:35 PM 100.4 °F 98.4 °F 53.6 °F 21% 29.79 in 10.0 mi South 11.5 mph - N/A   Clear
7:55 PM 96.8 °F 94.4 °F 53.6 °F 23% 29.79 in 10.0 mi South 9.2 mph - N/A   Clear
8:15 PM 95.0 °F 92.7 °F 53.6 °F 25% 29.79 in 10.0 mi South 9.2 mph - N/A   Clear
8:35 PM 93.2 °F 91.3 °F 55.4 °F 28% 29.80 in 10.0 mi South 8.1 mph - N/A   Clear
8:55 PM 91.4 °F 89.4 °F 55.4 °F 29% 29.80 in 10.0 mi South 8.1 mph - N/A   Clear
9:15 PM 91.4 °F 89.4 °F 55.4 °F 29% 29.81 in 10.0 mi South 8.1 mph - N/A   Clear
9:35 PM 89.6 °F 88.1 °F 57.2 °F 33% 29.81 in 10.0 mi SSE 8.1 mph - N/A   Clear
9:55 PM 89.6 °F 88.1 °F 57.2 °F 33% 29.82 in 10.0 mi South 6.9 mph - N/A   Clear
10:15 PM 87.8 °F 86.5 °F 57.2 °F 35% 29.82 in 10.0 mi South 8.1 mph - N/A   Clear
10:35 PM 87.8 °F 87.1 °F 59.0 °F 38% 29.82 in 10.0 mi South 10.4 mph - N/A   Clear
10:55 PM 86.0 °F 85.4 °F 59.0 °F 40% 29.82 in 10.0 mi South 8.1 mph - N/A   Clear
11:15 PM 86.0 °F 85.4 °F 59.0 °F 40% 29.83 in 10.0 mi South 8.1 mph - N/A   Clear
11:35 PM 86.0 °F 85.4 °F 59.0 °F 40% 29.83 in 10.0 mi South 8.1 mph - N/A   Clear
11:55 PM 86.0 °F 85.4 °F 59.0 °F 40% 29.83 in 10.0 mi South 8.1 mph - N/A   Clear